This is the latest recevied weather packets stored in our database for station/object JA3YAI-13. If no packets are shown the sender has not sent any weather packets the latest 10 day(s).
| Time | Temp. | Humidity | Pressure | Rain* | Wind** | Luminosity | Snow |
|---|---|---|---|---|---|---|---|
| 1777686985 | 22.22° C | 60% | 1004.6 hPa | 0 mm | - | - | - |
| 1777686385 | 21.67° C | 62% | 1004.4 hPa | 0 mm | - | - | - |
| 1777685784 | 21.11° C | 63% | 1004.4 hPa | 0 mm | - | - | - |
| 1777685184 | 21.11° C | 63% | 1004.7 hPa | 0 mm | - | - | - |
| 1777684585 | 21.11° C | 65% | 1004.9 hPa | 0 mm | - | - | - |
| 1777683985 | 20.56° C | 68% | 1004.8 hPa | 0 mm | - | - | - |
| 1777683385 | 20.56° C | 70% | 1004.7 hPa | 0 mm | - | - | - |
| 1777682784 | 20° C | 73% | 1004.5 hPa | 0 mm | - | - | - |
| 1777682184 | 20° C | 73% | 1004.4 hPa | 0 mm | - | - | - |
| 1777681585 | 19.44° C | 73% | 1004.4 hPa | 0 mm | - | - | - |
| 1777680985 | 18.89° C | 76% | 1004.4 hPa | 0 mm | - | - | - |
| 1777680385 | 18.33° C | 78% | 1004.4 hPa | 0 mm | - | - | - |
| 1777679784 | 17.78° C | 78% | 1004.2 hPa | 0 mm | - | - | - |
| 1777679184 | 17.78° C | 80% | 1004.3 hPa | 0 mm | - | - | - |
| 1777678585 | 17.78° C | 79% | 1004.1 hPa | 0 mm | - | - | - |
| 1777677985 | 16.67° C | 82% | 1003.8 hPa | 0 mm | - | - | - |
| 1777677384 | 16.67° C | 81% | 1004 hPa | 0 mm | - | - | - |
| 1777676784 | 16.67° C | 82% | 1003.7 hPa | 0 mm | - | - | - |
| 1777676184 | 15.56° C | 84% | 1003.7 hPa | 0 mm | - | - | - |
| 1777675585 | 15.56° C | 84% | 1003.6 hPa | 0 mm | - | - | - |
| 1777674985 | 15.56° C | 84% | 1003.4 hPa | 0 mm | - | - | - |
| 1777674388 | 15° C | 85% | 1003.6 hPa | 0 mm | - | - | - |
| 1777673784 | 15° C | 86% | 1003.4 hPa | 0 mm | - | - | - |
| 1777673184 | 14.44° C | 87% | 1003.3 hPa | 0 mm | - | - | - |
| 1777672585 | 13.89° C | 89% | 1003.2 hPa | 0 mm | - | - | - |
* Rain latest hour (hover to see other rain measurements)
** Current wind speed in m/s (hover to see current wind gust speed)